| time (UTC) | temp F | wind direction | speed knots | gust knots | rain 1hr in | rain 24hr in | rain mn in | humidity % | barometer mb |
| 20260507020043 | 55 | 103 | 0.9 | 7.8 | 0.00 | 0.16 | 0.16 | 96 | 1008.5 |
| 20260507014543 | 55 | 153 | 1.7 | 7.8 | 0.00 | 0.16 | 0.16 | 96 | 1008.7 |
| 20260507013038 | 55 | 196 | 3.5 | 7.8 | 0.00 | 0.16 | 0.16 | 96 | 1008.7 |
| 20260507011542 | 55 | 205 | 0.9 | 5.2 | 0.00 | 0.16 | 0.16 | 96 | 1008.9 |
| 20260507010042 | 55 | 117 | 1.7 | 7.0 | 0.00 | 0.16 | 0.16 | 96 | 1009.1 |
| 20260507004535 | 55 | 160 | 1.7 | 7.0 | 0.00 | 0.16 | 0.16 | 96 | 1009.0 |
| 20260507003033 | 55 | 210 | 1.7 | 6.1 | 0.00 | 0.16 | 0.16 | 96 | 1008.9 |
| 20260507001516 | 55 | 188 | 2.6 | 7.0 | 0.00 | 0.16 | 0.16 | 96 | 1008.9 |
| 20260507000013 | 55 | 197 | 1.7 | 7.0 | 0.01 | 0.16 | 0.16 | 96 | 1009.0 |
| 20260506234607 | 55 | 206 | 1.7 | 8.7 | 0.02 | 0.16 | 0.16 | 96 | 1008.9 |
| 20260506233102 | 55 | 252 | 3.5 | 12.2 | 0.05 | 0.16 | 0.16 | 96 | 1009.0 |
| 20260506231538 | 55 | 149 | 3.5 | 11.3 | 0.09 | 0.16 | 0.16 | 96 | 1009.0 |
| 20260506230042 | 54 | 154 | 0.9 | 6.1 | 0.12 | 0.15 | 0.15 | 96 | 1008.9 |
| 20260506224517 | 54 | 143 | 1.7 | 6.1 | 0.12 | 0.14 | 0.14 | 96 | 1008.9 |
| 20260506223014 | 54 | 155 | 2.6 | 7.0 | 0.09 | 0.11 | 0.11 | 95 | 1009.0 |
| 20260506221554 | 54 | 189 | 2.6 | 7.0 | 0.06 | 0.07 | 0.07 | 95 | 1009.0 |
| 20260506220053 | 55 | 80 | 0.9 | 7.0 | 0.02 | 0.03 | 0.03 | 95 | 1009.5 |
| 20260506214532 | 55 | 203 | 0.9 | 7.8 | 0.01 | 0.02 | 0.02 | 95 | 1009.4 |
| 20260506213032 | 55 | 168 | 1.7 | 5.2 | 0.01 | 0.02 | 0.02 | 94 | 1009.6 |
| 20260506211515 | 55 | 174 | 1.7 | 6.1 | 0.00 | 0.01 | 0.01 | 93 | 1009.7 |
| 20260506210015 | 55 | 169 | 1.7 | 6.1 | 0.00 | 0.01 | 0.01 | 93 | 1009.8 |
| 20260506204511 | 56 | 78 | 1.7 | 9.6 | 0.01 | 0.01 | 0.01 | 92 | 1009.9 |
| 20260506203013 | 56 | 121 | 1.7 | 7.8 | 0.01 | 0.01 | 0.01 | 91 | 1010.1 |
| 20260506201512 | 57 | 156 | 3.5 | 8.7 | 0.01 | 0.01 | 0.01 | 91 | 1010.1 |
| 20260506200011 | 57 | 213 | 3.5 | 14.8 | 0.01 | 0.01 | 0.01 | 91 | 1010.2 |
| 20260506194507 | 58 | 155 | 1.7 | 13.0 | 0.00 | 0.00 | 0.00 | 89 | 1010.3 |
| 20260506193006 | 59 | 110 | 3.5 | 9.6 | 0.00 | 0.00 | 0.00 | 86 | 1010.4 |
| 20260506191548 | 60 | 151 | 5.2 | 10.4 | 0.00 | 0.00 | 0.00 | 83 | 1010.4 |
| 20260506190045 | 60 | 150 | 3.5 | 13.9 | 0.00 | 0.00 | 0.00 | 82 | 1010.4 |
| 20260506184528 | 61 | 174 | 3.5 | 10.4 | 0.00 | 0.00 | 0.00 | 82 | 1010.5 |
| 20260506183029 | 61 | 59 | 5.2 | 14.8 | 0.00 | 0.00 | 0.00 | 81 | 1010.7 |
| 20260506181509 | 61 | 128 | 2.6 | 11.3 | 0.00 | 0.00 | 0.00 | 81 | 1010.9 |
| 20260506180008 | 62 | 168 | 3.5 | 9.6 | 0.00 | 0.00 | 0.00 | 80 | 1011.0 |
| 20260506174601 | 62 | 125 | 3.5 | 12.2 | 0.00 | 0.00 | 0.00 | 79 | 1011.3 |
| 20260506173125 | 63 | 166 | 2.6 | 12.2 | 0.00 | 0.00 | 0.00 | 78 | 1011.5 |
| 20260506171553 | 64 | 212 | 4.3 | 12.2 | 0.00 | 0.00 | 0.00 | 77 | 1011.6 |
| 20260506170051 | 64 | 85 | 5.2 | 14.8 | 0.00 | 0.00 | 0.00 | 77 | 1011.6 |
| 20260506164550 | 64 | 198 | 4.3 | 13.9 | 0.00 | 0.00 | 0.00 | 78 | 1011.8 |
| 20260506163053 | 63 | 197 | 4.3 | 9.6 | 0.00 | 0.00 | 0.00 | 78 | 1012.1 |
| 20260506161548 | 64 | 230 | 3.5 | 11.3 | 0.00 | 0.00 | 0.00 | 77 | 1012.1 |
| 20260506160047 | 65 | 167 | 0.9 | 13.0 | 0.00 | 0.00 | 0.00 | 76 | 1012.3 |
| 20260506154530 | 64 | 86 | 4.3 | 13.9 | 0.00 | 0.00 | 0.00 | 76 | 1012.5 |
| 20260506153040 | 64 | 206 | 5.2 | 13.9 | 0.00 | 0.00 | 0.00 | 77 | 1012.4 |
| 20260506151526 | 64 | 153 | 3.5 | 15.6 | 0.00 | 0.00 | 0.00 | 77 | 1012.5 |
| 20260506150025 | 64 | 221 | 5.2 | 13.0 | 0.00 | 0.00 | 0.00 | 78 | 1012.8 |
| 20260506144537 | 63 | 217 | 3.5 | 8.7 | 0.00 | 0.00 | 0.00 | 78 | 1012.5 |
| 20260506143024 | 63 | 209 | 3.5 | 10.4 | 0.00 | 0.00 | 0.00 | 79 | 1012.6 |
| 20260506141526 | 63 | 201 | 2.6 | 12.2 | 0.00 | 0.00 | 0.00 | 79 | 1012.7 |
| 20260506140040 | 63 | 212 | 3.5 | 12.2 | 0.00 | 0.00 | 0.00 | 78 | 1012.4 |
| 20260506134530 | 63 | 195 | 6.1 | 12.2 | 0.00 | 0.00 | 0.00 | 79 | 1012.7 |
| 20260506133020 | 62 | 84 | 5.2 | 15.6 | 0.00 | 0.00 | 0.00 | 81 | 1013.0 |
| 20260506131523 | 61 | 155 | 4.3 | 12.2 | 0.00 | 0.00 | 0.00 | 82 | 1013.0 |
| 20260506130016 | 60 | 210 | 2.6 | 10.4 | 0.00 | 0.00 | 0.00 | 84 | 1013.0 |
| 20260506124513 | 60 | 214 | 6.1 | 13.0 | 0.00 | 0.00 | 0.00 | 85 | 1013.0 |
| 20260506123014 | 59 | 139 | 4.3 | 11.3 | 0.00 | 0.00 | 0.00 | 86 | 1013.0 |
| 20260506121554 | 59 | 176 | 4.3 | 11.3 | 0.00 | 0.00 | 0.00 | 88 | 1013.0 |
| 20260506120046 | 57 | 179 | 4.3 | 11.3 | 0.00 | 0.00 | 0.00 | 89 | 1013.1 |
| 20260506114533 | 57 | 132 | 3.5 | 12.2 | 0.00 | 0.00 | 0.00 | 89 | 1013.4 |
| 20260506113036 | 57 | 63 | 3.5 | 12.2 | 0.00 | 0.00 | 0.00 | 90 | 1013.3 |
| 20260506111533 | 56 | 180 | 3.5 | 7.0 | 0.00 | 0.00 | 0.00 | 90 | 1013.5 |
| 20260506110040 | 56 | 177 | 2.6 | 8.7 | 0.00 | 0.00 | 0.00 | 90 | 1013.4 |
| 20260506104530 | 57 | 129 | 1.7 | 11.3 | 0.00 | 0.00 | 0.00 | 91 | 1013.2 |
| 20260506103029 | 56 | 194 | 4.3 | 10.4 | 0.00 | 0.00 | 0.00 | 91 | 1013.2 |
| 20260506101533 | 56 | 152 | 2.6 | 9.6 | 0.00 | 0.00 | 0.00 | 91 | 1013.1 |
| 20260506100027 | 56 | 148 | 1.7 | 9.6 | 0.00 | 0.00 | 0.00 | 91 | 1013.0 |
| 20260506094527 | 56 | 77 | 3.5 | 9.6 | 0.00 | 0.00 | 0.00 | 91 | 1012.9 |
| 20260506093004 | 56 | 210 | 3.5 | 7.0 | 0.00 | 0.00 | 0.00 | 91 | 1013.1 |
| 20260506091503 | 57 | 184 | 2.6 | 7.8 | 0.00 | 0.00 | 0.00 | 91 | 1013.1 |
| 20260506090043 | 57 | 172 | 2.6 | 8.7 | 0.00 | 0.00 | 0.00 | 91 | 1013.2 |
| 20260506084542 | 57 | 159 | 1.7 | 7.8 | 0.00 | 0.00 | 0.00 | 90 | 1013.3 |
| 20260506083030 | 57 | 214 | 0.9 | 8.7 | 0.00 | 0.00 | 0.00 | 90 | 1013.5 |
| 20260506081523 | 57 | 223 | 0.9 | 6.1 | 0.00 | 0.00 | 0.00 | 90 | 1013.5 |
| 20260506073008 | 57 | 165 | 2.6 | 7.8 | 0.00 | 0.00 | 0.00 | 90 | 1013.4 |
| 20260506071506 | 56 | 193 | 2.6 | 6.1 | 0.00 | 0.00 | 0.00 | 90 | 1013.4 |
| 20260506061558 | 57 | 131 | 2.6 | 8.7 | 0.00 | 0.00 | 0.00 | 87 | 1013.3 |
| 20260506044533 | 57 | 178 | 2.6 | 7.8 | 0.00 | 0.00 | 0.00 | 86 | 1014.0 |
| 20260506043023 | 57 | 211 | 6.1 | 12.2 | 0.00 | 0.00 | 0.00 | 86 | 1014.1 |
| 20260506041522 | 56 | 203 | 2.6 | 7.0 | 0.00 | 0.00 | 0.00 | 87 | 1014.0 |
| 20260506040021 | 55 | 101 | 0.9 | 5.2 | 0.00 | 0.00 | 0.00 | 87 | 1014.0 |
| 20260506034522 | 55 | 108 | 0.0 | 4.3 | 0.00 | 0.00 | 0.00 | 86 | 1014.0 |
| 20260506033008 | 55 | 102 | 1.7 | 4.3 | 0.00 | 0.00 | 0.00 | 85 | 1013.9 |
| 20260506031511 | 56 | 172 | 1.7 | 6.1 | 0.00 | 0.00 | 0.00 | 83 | 1013.7 |
| 20260506030007 | 56 | 82 | 0.9 | 8.7 | 0.00 | 0.00 | 0.00 | 82 | 1013.7 |
| 20260506024508 | 57 | 140 | 0.0 | 7.8 | 0.00 | 0.00 | 0.00 | 80 | 1013.7 |
| 20260506023005 | 58 | 91 | 3.5 | 8.7 | 0.00 | 0.00 | 0.00 | 80 | 1013.6 |
| 20260506021506 | 57 | 191 | 2.6 | 7.0 | 0.00 | 0.00 | 0.00 | 80 | 1013.7 |